AirNav   Air Wisconsin Up To $57,000 Bonus
 
 1165 users online  

53A Dr. C P Savage Sr. Airport
Montezuma, Georgia, USA

GOING TO MONTEZUMA?


FAA INFORMATION EFFECTIVE 07 NOVEMBER 2019

Location

FAA Identifier: 53A
Lat/Long: 32-18-07.2000N 084-00-26.9000W
32-18.120000N 084-00.448333W
32.3020000,-84.0074722
(estimated)
Elevation: 337.1 ft. / 102.7 m (surveyed)
Variation: 04W (2005)
From city: 1 mile E of MONTEZUMA, GA
Time zone: UTC -5 (UTC -4 during Daylight Saving Time)
Zip code: 31063

Airport Operations

Airport use: Open to the public
Activation date: 09/1962
Control tower: no
ARTCC: ATLANTA CENTER
FSS: MACON FLIGHT SERVICE STATION
NOTAMs facility: MCN (NOTAM-D service available)
Attendance: UNATNDD
Wind indicator: lighted
Segmented circle: no
Lights: ACTVT MIRL RY 18/36 AND PAPI RYS 18 & 36 - CTAF.
Beacon: white-green (lighted land airport)
Operates sunset to sunrise.

Airport Communications

CTAF: 122.9
ATLANTA APPROACH: 124.2
ATLANTA DEPARTURE: 124.2
WX AWOS-3 at ACJ (15 nm SW): 128.375 (229-928-0934)
WX AWOS-3 at PXE (17 nm NE): 123.825 (478-987-8768)
  • ATLANTA LARGE TRACON PROVIDES APCH/DEP SVC 0615-2300 ON FREQ 124.2/279.6 ; ATLANTA ARTCC PROVIDES APCH/DEP SVC 2300-0615 ON FREQS 134.5/360.75 (MACON RCAG).

Nearby radio navigation aids

VOR radial/distance  VOR name  Freq  Var
VNAr281/26.4VIENNA VORTAC116.5001E
MCNr217/29.6MACON VORTAC114.2001E

 
NDB name  Hdg/Dist  Freq  Var  ID
MONTEZUMA184/3.942604WIZS .. --.. ...
LINDBERGH038/9.224204WLKG .-.. -.- --.
CONEY344/19.740006WOHY --- .... -.--

Airport Services

Parking: tiedowns
Airframe service: NONE
Powerplant service: NONE
Bottled oxygen: NONE
Bulk oxygen: NONE

Runway Information

Runway 18/36

Dimensions: 4220 x 75 ft. / 1286 x 23 m
Surface: asphalt, in good condition
Weight bearing capacity: 
Single wheel: 30.0
Runway edge lights: medium intensity
RUNWAY 18  RUNWAY 36
Latitude: 32-18.467237N32-17.771270N
Longitude: 084-00.444993W084-00.452673W
Elevation: 335.4 ft.337.1 ft.
Traffic pattern: leftleft
Runway heading: 185 magnetic, 181 true005 magnetic, 001 true
Markings: nonprecision, in good conditionnonprecision, in good condition
Visual slope indicator: 2-light PAPI on left (3.30 degrees glide path)2-light PAPI on left (3.00 degrees glide path)
Touchdown point: yes, no lightsyes, no lights
Obstructions: 12 ft. tree, 248 ft. from runway, 155 ft. left of centerline, 4:1 slope to clear
20' TREES AND BRUSH 0 FT FRM RY END AND 125' L AND R OF CNTRLN.
26 ft. pole, 1240 ft. from runway, 250 ft. left of centerline, 40:1 slope to clear

Airport Ownership and Management from official FAA records

Ownership: Publicly-owned
Owner: CITY OF MONTEZUMA
CITY HALL, P.O. BOX 388
MONTEZUMA, GA 31063
Phone 478-472-8144
Manager: LARRY SMITH, MAYOR
CITY HALL, P.O. BOX 388
MONTEZUMA, GA 31063
Phone 478-472-8144

Airport Operational Statistics

Aircraft based on the field: 8
Single engine airplanes: 7
Multi engine airplanes: 1
    
Aircraft operations: avg 96/week *
70% local general aviation
30% transient general aviation
* for 12-month period ending 01 December 2017

Additional Remarks

FOR CD CTC ATLANTA APCH AT 678-364-6132, WHEN APCH CLSD CTC ATLANTA ARTCC AT 770-210-7692.

Instrument Procedures

NOTE: All procedures below are presented as PDF files. If you need a reader for these files, you should download the free Adobe Reader.

NOT FOR NAVIGATION. Please procure official charts for flight.
FAA instrument procedures published for use from 07 November 2019 at 0901Z to 05 December 2019 at 0900Z.

 
IAPs - Instrument Approach Procedures
RNAV (GPS) RWY 18 **CHANGED**   download (184KB)
RNAV (GPS) RWY 36 **CHANGED**   download (186KB)
NDB RWY 18 **CHANGED**   download (182KB)
NOTE: Special Take-Off Minimums/Departure Procedures apply   download (189KB)

Other nearby airports with instrument procedures:

KACJ - Jimmy Carter Regional Airport (15 nm SW)
KPXE - Perry-Houston County Airport (17 nm NE)
6A1 - Butler Municipal Airport (20 nm NW)
KCKF - Crisp County-Cordele Airport (22 nm SE)
KWRB - Robins Air Force Base (29 nm NE)
 
Loc | Ops | Rwys | IFR | FBO | Links
Com | Nav | Svcs | Stats | Notes
Area around 53A (Dr. C P Savage Sr. Airport)
 
Road maps at: MapQuest Bing Google
 
Aerial photo
WARNING: Photo may not be current or correct
Aerial photo of 53A (Dr. C P Savage Sr. Airport)
Do you have a better or more recent aerial photo of Dr. C P Savage Sr. Airport that you would like to share? If so, please send us your photo.

 
Sectional chart

 
Airport distance calculator
Flying to Dr. C P Savage Sr. Airport? Find the distance to fly.

From to 53A

Sunrise and sunset
Times for 14-Nov-2019
 Local
(UTC-5)
 Zulu
(UTC)
Morning civil twilight06:4011:40
Sunrise07:0512:05
Sunset17:3622:36
Evening civil twilight18:0223:02

Current date and time
Zulu (UTC)  14-Nov-2019 14:40:47
Local (UTC-5)  14-Nov-2019 09:40:47
 
METAR
KACJ 
15nm SW 
141415Z AUTO 06006KT 10SM OVC015 07/00 A3032 RMK AO2
KPXE 
17nm NE 
141415Z AUTO 06010KT 10SM SCT013 BKN021 OVC048 05/M01 A3033 RMK AO2 T00521012
K6A1 
20nm NW 
141415Z AUTO 06008KT 10SM 04/M02 A3031 RMK AO2 T00441016
KCKF 
22nm SE 
141415Z AUTO 05009KT 10SM 05/M02 A3032 RMK AO2 T00521017
KWRB 
29nm NE 
141356Z 03003KT 10SM OVC016 05/M02 A3031 RMK AO2A SLP268 T00531021
KMCN 
29nm NE 
141353Z 05008KT 10SM OVC016 06/M02 A3032 RMK AO2 SLP268 T00561022
TAF
KWRB 
29nm NE 
141300Z 1413/1519 04006KT 9999 BKN017 510392 QNH3021INS BECMG 1505/1506 VRB06KT 9000 -RA OVC010 520606 QNH3018INS BECMG 1508/1509 35006KT 8000 -RA OVC003 520703 QNH3017INS BECMG 1514/1515 35006KT 9000 DZ SCT010 510703 QNH3011INS TX08/1517Z TN03/1413Z
KMCN 
29nm NE 
141135Z 1412/1512 04006KT P6SM BKN012 OVC050 FM141500 03006KT P6SM VCSH OVC020 PROB30 1421/1423 -RA BKN015 FM150400 02006KT P6SM -RA FEW005 BKN008 OVC015 FM150600 01006KT 5SM -RA BR OVC005 FM151100 01007KT 4SM -RA BR SCT005 OVC008
NOTAMs
Click for the latest NOTAMs
NOTAMs are issued by the DoD/FAA and will open in a separate window not controlled by AirNav.

 

 
 

Would you like to see your business listed on this page?

 If your business provides an interesting product or service to pilots, flight crews, aircraft, or users of the Dr. C P Savage Sr. Airport, you should consider listing it here.  To start the listing process, click on the button below
 
Add a business
 

Other Pages about Dr. C P Savage Sr. Airport

Update a link
 
Copyright © AirNav, LLC. All rights reserved. Privacy Policy  Contact